Regional Weather Roundup
Issued by NWS

Home | Current Version | Previous Version | Graphics & Text | Print | Product List | Glossary On
Versions: 1 2 3 4 5 6 7 8 9 10 11 12 13 14 15 16 17 18 19 20 21 22 23 24 25 26 27 28 29 30 31 32 33 34 35 36 37 38 39 40 41 42 43 44 45 46 47 48 49 50
000
ASUS43 KOAX 171110
RWRNE

WEATHER ROUNDUP FOR NEBRASKA
NATIONAL WEATHER SERVICE OMAHA NE
500 AM CST SUN DEC 17 2017

NOTES: SATELLITE DATA IS BEING USED TO AUGMENT CLOUD COVER ABOVE
       12000 FEET.
       "FAIR" INDICATES FEW OR NO CLOUDS BELOW 12,000 FEET WITH NO
       SIGNIFICANT WEATHER AND/OR OBSTRUCTIONS TO VISIBILITY.


NEZ001>004-019>022-054>056-171200-
NEBRASKA PANHANDLE

CITY           SKY/WX    TMP DP  RH WIND       PRES   REMARKS
SCOTTSBLUFF    CLOUDY    31  30  96 E5        30.00F WCI  26
ALLIANCE       CLOUDY    30  28  92 N7        29.99S WCI  23
CHADRON        CLOUDY    30  28  92 CALM      30.03F
GORDON         CLOUDY    31  28  90 N3        30.00F
KIMBALL        CLOUDY    28  28 100 E3        29.97S
SIDNEY         CLOUDY    30  29  96 NE6       29.98S FOG     WCI  24
$$

NEZ057>060-069>072-079>082-171200-
SOUTHWEST NEBRASKA

CITY           SKY/WX    TMP DP  RH WIND       PRES   REMARKS
NORTH PLATTE   CLOUDY    35  33  92 N6        29.98S WCI  30
IMPERIAL       CLOUDY    34  34 100 NE6       29.98S WCI  29
LEXINGTON      CLOUDY    29  26  90 N8        29.97R WCI  21
MCCOOK         CLOUDY    36  31  82 N14       29.96S WCI  27
OGALLALA       LGT RAIN  34  33  95 N3        30.00S
$$

NEZ005>010-023>029-035>040-094-171200-
NORTH CENTRAL NEBRASKA

CITY           SKY/WX    TMP DP  RH WIND       PRES   REMARKS
VALENTINE      CLOUDY    33  30  88 NW5       30.03S WCI  29
AINSWORTH      CLOUDY    33  33 100 N3        30.02S
BROKEN BOW     FLURRIES  33  30  88 N7        29.98F WCI  27
O`NEILL        CLOUDY    32  32 100 CALM      30.03R
ORD            CLOUDY    34  29  82 N7        29.99F WCI  28
THEDFORD       CLOUDY    34  33  97 NE5       30.01S FOG     WCI  30
$$

NEZ041-046>049-061>064-073>077-083>087-171200-
SOUTH CENTRAL NEBRASKA

CITY           SKY/WX    TMP DP  RH WIND       PRES   REMARKS
GRAND ISLAND   CLOUDY    30  29  96 N12       29.99R WCI  20
AURORA         CLOUDY    30  28  92 NE12      29.98R WCI  21
HASTINGS       CLOUDY    31  27  85 NE12      29.97R WCI  22
HEBRON         LGT RAIN  35  32  88 NE7       29.94F WCI  29
HOLDREGE       PTCLDY    30  29  98 N10       29.95S WCI  21
KEARNEY        PTCLDY    30  28  92 N12       29.97S WCI  20
YORK           MOCLDY    32  32 100 N14       29.99R WCI  22
$$

NEZ011>018-030>034-042>045-171200-
NORTHEAST NEBRASKA

CITY           SKY/WX    TMP DP  RH WIND       PRES   REMARKS
NORFOLK        CLOUDY    31  28  89 N7        30.01R WCI  24
ALBION         CLOUDY    33  30  88 N5        30.01R WCI  29
BLAIR          CLOUDY    30  27  90 N12       29.97S WCI  20
COLUMBUS       CLOUDY    30  27  88 N14       29.99S WCI  19
FREMONT        CLOUDY    29  27  89 N5        29.99F WCI  24
TEKAMAH        CLOUDY    27  23  85 N12       30.02R WCI  17
WAYNE          CLOUDY    29  28  96 N5        30.03R WCI  24
$$

NEZ050>053-065>068-078-088>093-171200-
SOUTHEAST NEBRASKA

CITY           SKY/WX    TMP DP  RH WIND       PRES   REMARKS
LINCOLN        CLOUDY    32  27  81 N8        30.00R WCI  25
OMAHA EPPLEY   CLOUDY    30  24  78 N10       29.98R WCI  21
BEATRICE       LGT SNOW  35  32  88 N5        29.96S WCI  31
FALLS CITY     LGT RAIN  41  38  89 S8        29.94F
NEBRASKA CITY  CLOUDY    35  28  76 N5        29.95R WCI  31
PLATTSMOUTH    MOCLDY    32  29  88 N3        29.95F
$$

NEZ044-045-051>053-067-171200-
OMAHA AREA

CITY           SKY/WX    TMP DP  RH WIND       PRES   REMARKS
OMAHA EPPLEY   CLOUDY    30  24  78 N10       29.98R WCI  21
BLAIR          CLOUDY    30  27  90 N12       29.97S WCI  20
FREMONT        CLOUDY    29  27  89 N5        29.99F WCI  24
MILLARD        CLOUDY    34  29  80 N5        29.98F WCI  30
OFFUTT AFB     MOCLDY    33  26  77 N5        29.96S WCI  28
PLATTSMOUTH    MOCLDY    32  29  88 N3        29.95F
WAHOO          FAIR      31  27  87 N9        29.99S WCI  22
$$



USA.gov is the U.S. government's official web portal to all federal, state and local government web resources and services.